Year,Month,Day,Hour,Minute,Value (Times are PST for temperature in C)
2018,10,21,00,00,9.70
2018,10,21,00,01,9.70
2018,10,21,00,02,9.70
2018,10,21,00,03,9.70
2018,10,21,00,04,9.70
2018,10,21,00,05,9.70
2018,10,21,00,06,9.60
2018,10,21,00,07,9.60
2018,10,21,00,08,9.60
2018,10,21,00,09,9.60
2018,10,21,00,10,9.60
2018,10,21,00,11,9.60
2018,10,21,00,12,9.60
2018,10,21,00,13,9.60
2018,10,21,00,14,9.60
2018,10,21,00,15,9.60
2018,10,21,00,16,9.60
2018,10,21,00,17,9.60
2018,10,21,00,18,9.60
2018,10,21,00,19,9.60
2018,10,21,00,20,9.60
2018,10,21,00,21,9.60
2018,10,21,00,22,9.60
2018,10,21,00,23,9.60
2018,10,21,00,24,9.60
2018,10,21,00,25,9.60
2018,10,21,00,26,9.60
2018,10,21,00,27,9.60
2018,10,21,00,28,9.60
2018,10,21,00,29,9.60
2018,10,21,00,30,9.60
2018,10,21,00,31,9.60
2018,10,21,00,32,9.60
2018,10,21,00,33,9.70
2018,10,21,00,34,9.60
2018,10,21,00,35,9.60
2018,10,21,00,36,9.60
2018,10,21,00,37,9.50
2018,10,21,00,38,9.50
2018,10,21,00,39,9.50
2018,10,21,00,40,9.50
2018,10,21,00,41,9.50
2018,10,21,00,42,9.50
2018,10,21,00,43,9.50
2018,10,21,00,44,9.50
2018,10,21,00,45,9.40
2018,10,21,00,46,9.40
2018,10,21,00,47,9.40
2018,10,21,00,48,9.40
2018,10,21,00,49,9.40
2018,10,21,00,50,9.50
2018,10,21,00,51,9.50
2018,10,21,00,52,9.50
2018,10,21,00,53,9.50
2018,10,21,00,54,9.60
2018,10,21,00,55,9.60
2018,10,21,00,56,9.60
2018,10,21,00,57,9.60
2018,10,21,00,58,9.60
2018,10,21,00,59,9.60
2018,10,21,01,00,9.60
2018,10,21,01,01,9.60
2018,10,21,01,02,9.70
2018,10,21,01,03,9.70
2018,10,21,01,04,9.70
2018,10,21,01,05,9.70
2018,10,21,01,06,9.70
2018,10,21,01,07,9.80
2018,10,21,01,08,9.80
2018,10,21,01,09,9.80
2018,10,21,01,10,9.90
2018,10,21,01,11,9.90
2018,10,21,01,12,9.90
2018,10,21,01,13,9.90
2018,10,21,01,14,10.00
2018,10,21,01,15,10.00
2018,10,21,01,16,10.00
2018,10,21,01,17,10.00
2018,10,21,01,18,10.10
2018,10,21,01,19,10.10
2018,10,21,01,20,10.10
2018,10,21,01,21,10.10
2018,10,21,01,22,10.20
2018,10,21,01,23,10.20
2018,10,21,01,24,10.20
2018,10,21,01,25,10.20
2018,10,21,01,26,10.20
2018,10,21,01,27,10.20
2018,10,21,01,28,10.20
2018,10,21,01,29,10.30
2018,10,21,01,30,10.30
2018,10,21,01,31,10.30
2018,10,21,01,32,10.30
2018,10,21,01,33,10.30
2018,10,21,01,34,10.30
2018,10,21,01,35,10.30
2018,10,21,01,36,10.30
2018,10,21,01,37,10.30
2018,10,21,01,38,10.30
2018,10,21,01,39,10.30
2018,10,21,01,40,10.30
2018,10,21,01,41,10.30
2018,10,21,01,42,10.30
2018,10,21,01,43,10.30
2018,10,21,01,44,10.30
2018,10,21,01,45,10.20
2018,10,21,01,46,10.20
2018,10,21,01,47,10.20
2018,10,21,01,48,10.20
2018,10,21,01,49,10.20
2018,10,21,01,50,10.20
2018,10,21,01,51,10.20
2018,10,21,01,52,10.10
2018,10,21,01,53,10.10
2018,10,21,01,54,10.10
2018,10,21,01,55,10.10
2018,10,21,01,56,10.10
2018,10,21,01,57,10.10
2018,10,21,01,58,10.10
2018,10,21,01,59,10.10
2018,10,21,02,00,10.10
2018,10,21,02,01,10.10
2018,10,21,02,02,10.00
2018,10,21,02,03,10.00
2018,10,21,02,04,10.00
2018,10,21,02,05,10.00
2018,10,21,02,06,10.00
2018,10,21,02,07,10.00
2018,10,21,02,08,10.00
2018,10,21,02,09,10.00
2018,10,21,02,10,9.90
2018,10,21,02,11,9.90
2018,10,21,02,12,9.90
2018,10,21,02,13,9.90
2018,10,21,02,14,9.90
2018,10,21,02,15,9.90
2018,10,21,02,16,9.80
2018,10,21,02,17,9.80
2018,10,21,02,18,9.80
2018,10,21,02,19,9.80
2018,10,21,02,20,9.80
2018,10,21,02,21,9.70
2018,10,21,02,22,9.70
2018,10,21,02,23,9.70
2018,10,21,02,24,9.70
2018,10,21,02,25,9.60
2018,10,21,02,26,9.60
2018,10,21,02,27,9.60
2018,10,21,02,28,9.60
2018,10,21,02,29,9.60
2018,10,21,02,30,9.60
2018,10,21,02,31,9.60
2018,10,21,02,32,9.60
2018,10,21,02,33,9.50
2018,10,21,02,34,9.50
2018,10,21,02,35,9.50
2018,10,21,02,36,9.60
2018,10,21,02,37,9.60
2018,10,21,02,38,9.60
2018,10,21,02,39,9.60
2018,10,21,02,40,9.60
2018,10,21,02,41,9.60
2018,10,21,02,42,9.60
2018,10,21,02,43,9.60
2018,10,21,02,44,9.60
2018,10,21,02,45,9.60
2018,10,21,02,46,9.60
2018,10,21,02,47,9.60
2018,10,21,02,48,9.60
2018,10,21,02,49,9.60
2018,10,21,02,50,9.60
2018,10,21,02,51,9.60
2018,10,21,02,52,9.60
2018,10,21,02,53,9.60
2018,10,21,02,54,9.60
2018,10,21,02,55,9.60
2018,10,21,02,56,9.70
2018,10,21,02,57,9.70
2018,10,21,02,58,9.70
2018,10,21,02,59,9.70
2018,10,21,03,00,9.80
2018,10,21,03,01,9.80
2018,10,21,03,02,9.80
2018,10,21,03,03,9.80
2018,10,21,03,04,9.90
2018,10,21,03,05,9.90
2018,10,21,03,06,9.90
2018,10,21,03,07,9.90
2018,10,21,03,08,9.90
2018,10,21,03,09,9.90
2018,10,21,03,10,9.90
2018,10,21,03,11,10.00
2018,10,21,03,12,10.00
2018,10,21,03,13,10.00
2018,10,21,03,14,10.00
2018,10,21,03,15,10.00
2018,10,21,03,16,10.00
2018,10,21,03,17,10.00
2018,10,21,03,18,10.00
2018,10,21,03,19,10.00
2018,10,21,03,20,10.10
2018,10,21,03,21,10.10
2018,10,21,03,22,10.10
2018,10,21,03,23,10.10
2018,10,21,03,24,10.10
2018,10,21,03,25,10.10
2018,10,21,03,26,10.00
2018,10,21,03,27,10.00
2018,10,21,03,28,10.00
2018,10,21,03,29,9.90
2018,10,21,03,30,9.90
2018,10,21,03,31,9.90
2018,10,21,03,32,9.90
2018,10,21,03,33,9.80
2018,10,21,03,34,9.80
2018,10,21,03,35,9.80
2018,10,21,03,36,9.80
2018,10,21,03,37,9.80
2018,10,21,03,38,9.70
2018,10,21,03,39,9.70
2018,10,21,03,40,9.70
2018,10,21,03,41,9.70
2018,10,21,03,42,9.70
2018,10,21,03,43,9.70
2018,10,21,03,44,9.70
2018,10,21,03,45,9.70
2018,10,21,03,46,9.60
2018,10,21,03,47,9.60
2018,10,21,03,48,9.60
2018,10,21,03,49,9.60
2018,10,21,03,50,9.60
2018,10,21,03,51,9.60
2018,10,21,03,52,9.60
2018,10,21,03,53,9.50
2018,10,21,03,54,9.50
2018,10,21,03,55,9.50
2018,10,21,03,56,9.50
2018,10,21,03,57,9.50
2018,10,21,03,58,9.40
2018,10,21,03,59,9.40
2018,10,21,04,00,9.30
2018,10,21,04,01,9.30
2018,10,21,04,02,9.20
2018,10,21,04,03,9.20
2018,10,21,04,04,9.10
2018,10,21,04,05,9.10
2018,10,21,04,06,9.00
2018,10,21,04,07,9.00
2018,10,21,04,08,8.90
2018,10,21,04,09,8.90
2018,10,21,04,10,8.90
2018,10,21,04,11,8.80
2018,10,21,04,12,8.80
2018,10,21,04,13,8.70
2018,10,21,04,14,8.70
2018,10,21,04,15,8.70
2018,10,21,04,16,8.70
2018,10,21,04,17,8.60
2018,10,21,04,18,8.60
2018,10,21,04,19,8.60
2018,10,21,04,20,8.50
2018,10,21,04,21,8.50
2018,10,21,04,22,8.40
2018,10,21,04,23,8.40
2018,10,21,04,24,8.40
2018,10,21,04,25,8.40
2018,10,21,04,26,8.40
2018,10,21,04,27,8.40
2018,10,21,04,28,8.40
2018,10,21,04,29,8.30
2018,10,21,04,30,8.30
2018,10,21,04,31,8.30
2018,10,21,04,32,8.30
2018,10,21,04,33,8.30
2018,10,21,04,34,8.30
2018,10,21,04,35,8.30
2018,10,21,04,36,8.30
2018,10,21,04,37,8.20
2018,10,21,04,38,8.20
2018,10,21,04,39,8.20
2018,10,21,04,40,8.20
2018,10,21,04,41,8.20
2018,10,21,04,42,8.20
2018,10,21,04,43,8.20
2018,10,21,04,44,8.10
2018,10,21,04,45,8.10
2018,10,21,04,46,8.10
2018,10,21,04,47,8.10
2018,10,21,04,48,8.10
2018,10,21,04,49,8.10
2018,10,21,04,50,8.10
2018,10,21,04,51,8.10
2018,10,21,04,52,8.10
2018,10,21,04,53,8.10
2018,10,21,04,54,8.00
2018,10,21,04,55,8.00
2018,10,21,04,56,8.00
2018,10,21,04,57,8.00
2018,10,21,04,58,8.00
2018,10,21,04,59,8.10
2018,10,21,05,00,8.10
2018,10,21,05,01,8.10
2018,10,21,05,02,8.10
2018,10,21,05,03,8.10
2018,10,21,05,04,8.10
2018,10,21,05,05,8.10
2018,10,21,05,06,8.10
2018,10,21,05,07,8.10
2018,10,21,05,08,8.10
2018,10,21,05,09,8.10
2018,10,21,05,10,8.10
2018,10,21,05,11,8.10
2018,10,21,05,12,8.10
2018,10,21,05,13,8.10
2018,10,21,05,14,8.10
2018,10,21,05,15,8.10
2018,10,21,05,16,8.10
2018,10,21,05,17,8.10
2018,10,21,05,18,8.20
2018,10,21,05,19,8.20
2018,10,21,05,20,8.20
2018,10,21,05,21,8.20
2018,10,21,05,22,8.20
2018,10,21,05,23,8.20
2018,10,21,05,24,8.20
2018,10,21,05,25,8.20
2018,10,21,05,26,8.20
2018,10,21,05,27,8.20
2018,10,21,05,28,8.20
2018,10,21,05,29,8.20
2018,10,21,05,30,8.20
2018,10,21,05,31,8.20
2018,10,21,05,32,8.20
2018,10,21,05,33,8.20
2018,10,21,05,34,8.20
2018,10,21,05,35,8.20
2018,10,21,05,36,8.20
2018,10,21,05,37,8.30
2018,10,21,05,38,8.30
2018,10,21,05,39,8.30
2018,10,21,05,40,8.30
2018,10,21,05,41,8.30
2018,10,21,05,42,8.30
2018,10,21,05,43,8.30
2018,10,21,05,44,8.30
2018,10,21,05,45,8.40
2018,10,21,05,46,8.40
2018,10,21,05,47,8.40
2018,10,21,05,48,8.40
2018,10,21,05,49,8.50
2018,10,21,05,50,8.50
2018,10,21,05,51,8.50
2018,10,21,05,52,8.60
2018,10,21,05,53,8.60
2018,10,21,05,54,8.60
2018,10,21,05,55,8.60
2018,10,21,05,56,8.60
2018,10,21,05,57,8.60
2018,10,21,05,58,8.70
2018,10,21,05,59,8.70
2018,10,21,06,00,8.70
2018,10,21,06,01,8.70
2018,10,21,06,02,8.70
2018,10,21,06,03,8.80
2018,10,21,06,04,8.80
2018,10,21,06,05,8.80
2018,10,21,06,06,8.80
2018,10,21,06,07,8.80
2018,10,21,06,08,8.80
2018,10,21,06,09,8.80
2018,10,21,06,10,8.80
2018,10,21,06,11,8.80
2018,10,21,06,12,8.80
2018,10,21,06,13,8.80
2018,10,21,06,14,8.80
2018,10,21,06,15,8.80
2018,10,21,06,16,8.80
2018,10,21,06,17,8.80
2018,10,21,06,18,8.80
2018,10,21,06,19,8.80
2018,10,21,06,20,8.80
2018,10,21,06,21,8.90
2018,10,21,06,22,8.90
2018,10,21,06,23,8.90
2018,10,21,06,24,8.90
2018,10,21,06,25,8.90
2018,10,21,06,26,8.90
2018,10,21,06,27,8.90
2018,10,21,06,28,8.90
2018,10,21,06,29,8.80
2018,10,21,06,30,8.80
2018,10,21,06,31,8.80
2018,10,21,06,32,8.80
2018,10,21,06,33,8.80
2018,10,21,06,34,8.90
2018,10,21,06,35,8.90
2018,10,21,06,36,8.90
2018,10,21,06,37,8.90
2018,10,21,06,38,8.90
2018,10,21,06,39,8.90
2018,10,21,06,40,8.90
2018,10,21,06,41,8.90
2018,10,21,06,42,8.90
2018,10,21,06,43,8.90
2018,10,21,06,44,8.90
2018,10,21,06,45,8.90
2018,10,21,06,46,8.90
2018,10,21,06,47,8.80
2018,10,21,06,48,8.80
2018,10,21,06,49,8.80
2018,10,21,06,50,8.80
2018,10,21,06,51,8.80
2018,10,21,06,52,8.80
2018,10,21,06,53,8.80
2018,10,21,06,54,8.80
2018,10,21,06,55,8.80
2018,10,21,06,56,8.80
2018,10,21,06,57,8.80
2018,10,21,06,58,8.80
2018,10,21,06,59,8.80
2018,10,21,07,00,8.80
2018,10,21,07,01,8.80
2018,10,21,07,02,8.80
2018,10,21,07,03,8.70
2018,10,21,07,04,8.70
2018,10,21,07,05,8.80
2018,10,21,07,06,8.80
2018,10,21,07,07,8.80
2018,10,21,07,08,8.80
2018,10,21,07,09,8.80
2018,10,21,07,10,8.80
2018,10,21,07,11,8.80
2018,10,21,07,12,8.80
2018,10,21,07,13,8.80
2018,10,21,07,14,8.80
2018,10,21,07,15,8.80
2018,10,21,07,16,8.80
2018,10,21,07,17,8.80
2018,10,21,07,18,8.80
2018,10,21,07,19,8.80
2018,10,21,07,20,8.80
2018,10,21,07,21,8.80
2018,10,21,07,22,8.80
2018,10,21,07,23,8.80
2018,10,21,07,24,8.80
2018,10,21,07,25,8.70
2018,10,21,07,26,8.70
2018,10,21,07,27,8.70
2018,10,21,07,28,8.70
2018,10,21,07,29,8.70
2018,10,21,07,30,8.70
2018,10,21,07,31,8.60
2018,10,21,07,32,8.60
2018,10,21,07,33,8.60
2018,10,21,07,34,8.60
2018,10,21,07,35,8.60
2018,10,21,07,36,8.60
2018,10,21,07,37,8.60
2018,10,21,07,38,8.60
2018,10,21,07,39,8.60
2018,10,21,07,40,8.60
2018,10,21,07,41,8.60
2018,10,21,07,42,8.60
2018,10,21,07,43,8.60
2018,10,21,07,44,8.60
2018,10,21,07,45,8.60
2018,10,21,07,46,8.60
2018,10,21,07,47,8.60
2018,10,21,07,48,8.60
2018,10,21,07,49,8.50
2018,10,21,07,50,8.50
2018,10,21,07,51,8.40
2018,10,21,07,52,8.40
2018,10,21,07,53,8.30
2018,10,21,07,54,8.30
2018,10,21,07,55,8.20
2018,10,21,07,56,8.20
2018,10,21,07,57,8.10
2018,10,21,07,58,8.00
2018,10,21,07,59,8.00
2018,10,21,08,00,7.90
2018,10,21,08,01,7.80
2018,10,21,08,02,7.80
2018,10,21,08,03,7.70
2018,10,21,08,04,7.70
2018,10,21,08,05,7.70
2018,10,21,08,06,7.70
2018,10,21,08,07,7.70
2018,10,21,08,08,7.70
2018,10,21,08,09,7.60
2018,10,21,08,10,7.60
2018,10,21,08,11,7.60
2018,10,21,08,12,7.60
2018,10,21,08,13,7.60
2018,10,21,08,14,7.60
2018,10,21,08,15,7.70
2018,10,21,08,16,7.70
2018,10,21,08,17,7.60
2018,10,21,08,18,7.60
2018,10,21,08,19,7.60
2018,10,21,08,20,7.60
2018,10,21,08,21,7.60
2018,10,21,08,22,7.60
2018,10,21,08,23,7.60
2018,10,21,08,24,7.60
2018,10,21,08,25,7.60
2018,10,21,08,26,7.60
2018,10,21,08,27,7.70
2018,10,21,08,28,7.70
2018,10,21,08,29,7.70
2018,10,21,08,30,7.80
2018,10,21,08,31,7.80
2018,10,21,08,32,7.80
2018,10,21,08,33,7.80
2018,10,21,08,34,7.90
2018,10,21,08,35,7.90
2018,10,21,08,36,8.00
2018,10,21,08,37,8.00
2018,10,21,08,38,8.10
2018,10,21,08,39,8.10
2018,10,21,08,40,8.10
2018,10,21,08,41,8.10
2018,10,21,08,42,8.20
2018,10,21,08,43,8.20
2018,10,21,08,44,8.30
2018,10,21,08,45,8.30
2018,10,21,08,46,8.40
2018,10,21,08,47,8.40
2018,10,21,08,48,8.50
2018,10,21,08,49,8.60
2018,10,21,08,50,8.60
2018,10,21,08,51,8.70
2018,10,21,08,52,8.70
2018,10,21,08,53,8.80
2018,10,21,08,54,8.80
2018,10,21,08,55,8.90
2018,10,21,08,56,8.90
2018,10,21,08,57,9.00
2018,10,21,08,58,9.10
2018,10,21,08,59,9.10
2018,10,21,09,00,9.10
2018,10,21,09,01,9.20
2018,10,21,09,02,9.20
2018,10,21,09,03,9.30
2018,10,21,09,04,9.30
2018,10,21,09,05,9.30
2018,10,21,09,06,9.40
2018,10,21,09,07,9.40
2018,10,21,09,08,9.50
2018,10,21,09,09,9.60
2018,10,21,09,10,9.60
2018,10,21,09,11,9.60
2018,10,21,09,12,9.70
2018,10,21,09,13,9.70
2018,10,21,09,14,9.70
2018,10,21,09,15,9.70
2018,10,21,09,16,9.70
2018,10,21,09,17,9.70
2018,10,21,09,18,9.80
2018,10,21,09,19,9.80
2018,10,21,09,20,9.80
2018,10,21,09,21,9.90
2018,10,21,09,22,9.90
2018,10,21,09,23,9.90
2018,10,21,09,24,10.00
2018,10,21,09,25,10.00
2018,10,21,09,26,10.10
2018,10,21,09,27,10.10
2018,10,21,09,28,10.10
2018,10,21,09,29,10.10
2018,10,21,09,30,10.10
2018,10,21,09,31,10.10
2018,10,21,09,32,10.10
2018,10,21,09,33,10.10
2018,10,21,09,34,10.10
2018,10,21,09,35,10.10
2018,10,21,09,36,10.10
2018,10,21,09,37,10.10
2018,10,21,09,38,10.10
2018,10,21,09,39,10.10
2018,10,21,09,40,10.10
2018,10,21,09,41,10.10
2018,10,21,09,42,10.10
2018,10,21,09,43,10.20
2018,10,21,09,44,10.20
2018,10,21,09,45,10.20
2018,10,21,09,46,10.30
2018,10,21,09,47,10.30
2018,10,21,09,48,10.30
2018,10,21,09,49,10.30
2018,10,21,09,50,10.30
2018,10,21,09,51,10.40
2018,10,21,09,52,10.40
2018,10,21,09,53,10.40
2018,10,21,09,54,10.50
2018,10,21,09,55,10.50
2018,10,21,09,56,10.50
2018,10,21,09,57,10.60
2018,10,21,09,58,10.60
2018,10,21,09,59,10.60
2018,10,21,10,00,10.60
2018,10,21,10,01,10.70
2018,10,21,10,02,10.70
2018,10,21,10,03,10.70
2018,10,21,10,04,10.70
2018,10,21,10,05,10.80
2018,10,21,10,06,10.80
2018,10,21,10,07,10.80
2018,10,21,10,08,10.80
2018,10,21,10,09,10.80
2018,10,21,10,10,10.90
2018,10,21,10,11,10.90
2018,10,21,10,12,10.90
2018,10,21,10,13,10.90
2018,10,21,10,14,10.90
2018,10,21,10,15,10.90
2018,10,21,10,16,10.90
2018,10,21,10,17,10.90
2018,10,21,10,18,11.00
2018,10,21,10,19,11.00
2018,10,21,10,20,11.10
2018,10,21,10,21,11.10
2018,10,21,10,22,11.20
2018,10,21,10,23,11.20
2018,10,21,10,24,11.30
2018,10,21,10,25,11.30
2018,10,21,10,26,11.30
2018,10,21,10,27,11.40
2018,10,21,10,28,11.40
2018,10,21,10,29,11.50
2018,10,21,10,30,11.50
2018,10,21,10,31,11.50
2018,10,21,10,32,11.60
2018,10,21,10,33,11.60
2018,10,21,10,34,11.60
2018,10,21,10,35,11.60
2018,10,21,10,36,11.70
2018,10,21,10,37,11.70
2018,10,21,10,38,11.80
2018,10,21,10,39,11.80
2018,10,21,10,40,11.90
2018,10,21,10,41,11.90
2018,10,21,10,42,12.00
2018,10,21,10,43,12.00
2018,10,21,10,44,12.00
2018,10,21,10,45,12.00
2018,10,21,10,46,12.00
2018,10,21,10,47,12.00
2018,10,21,10,48,12.00
2018,10,21,10,49,12.10
2018,10,21,10,50,12.10
2018,10,21,10,51,12.20
2018,10,21,10,52,12.20
2018,10,21,10,53,12.30
2018,10,21,10,54,12.30
2018,10,21,10,55,12.30
2018,10,21,10,56,12.30
2018,10,21,10,57,12.40
2018,10,21,10,58,12.40
2018,10,21,10,59,12.30
2018,10,21,11,00,12.40
2018,10,21,11,01,12.40
2018,10,21,11,02,12.40
2018,10,21,11,03,12.40
2018,10,21,11,04,12.40
2018,10,21,11,05,12.50
2018,10,21,11,06,12.50
2018,10,21,11,07,12.50
2018,10,21,11,08,12.60
2018,10,21,11,09,12.60
2018,10,21,11,10,12.70
2018,10,21,11,11,12.70
2018,10,21,11,12,12.70
2018,10,21,11,13,12.80
2018,10,21,11,14,12.80
2018,10,21,11,15,12.80
2018,10,21,11,16,12.80
2018,10,21,11,17,12.80
2018,10,21,11,18,12.80
2018,10,21,11,19,12.90
2018,10,21,11,20,12.90
2018,10,21,11,21,12.90
2018,10,21,11,22,13.00
2018,10,21,11,23,13.00
2018,10,21,11,24,13.00
2018,10,21,11,25,13.00
2018,10,21,11,26,13.00
2018,10,21,11,27,13.00
2018,10,21,11,28,13.00
2018,10,21,11,29,13.10
2018,10,21,11,30,13.10
2018,10,21,11,31,13.10
2018,10,21,11,32,13.10
2018,10,21,11,33,13.10
2018,10,21,11,34,13.20
2018,10,21,11,35,13.20
2018,10,21,11,36,13.20
2018,10,21,11,37,13.20
2018,10,21,11,38,13.30
2018,10,21,11,39,13.30
2018,10,21,11,40,13.30
2018,10,21,11,41,13.30
2018,10,21,11,42,13.30
2018,10,21,11,43,13.40
2018,10,21,11,44,13.40
2018,10,21,11,45,13.40
2018,10,21,11,46,13.40
2018,10,21,11,47,13.40
2018,10,21,11,48,13.40
2018,10,21,11,49,13.50
2018,10,21,11,50,13.50
2018,10,21,11,51,13.60
2018,10,21,11,52,13.60
2018,10,21,11,53,13.60
2018,10,21,11,54,13.60
2018,10,21,11,55,13.70
2018,10,21,11,56,13.70
2018,10,21,11,57,13.70
2018,10,21,11,58,13.70
2018,10,21,11,59,13.70
2018,10,21,12,00,13.70
2018,10,21,12,01,13.70
2018,10,21,12,02,13.70
2018,10,21,12,03,13.70
2018,10,21,12,04,13.70
2018,10,21,12,05,13.70
2018,10,21,12,06,13.70
2018,10,21,12,07,13.70
2018,10,21,12,08,13.70
2018,10,21,12,09,13.80
2018,10,21,12,10,13.80
2018,10,21,12,11,13.80
2018,10,21,12,12,13.80
2018,10,21,12,13,13.90
2018,10,21,12,14,13.90
2018,10,21,12,15,13.90
2018,10,21,12,16,13.90
2018,10,21,12,17,13.90
2018,10,21,12,18,14.00
2018,10,21,12,19,14.00
2018,10,21,12,20,14.10
2018,10,21,12,21,14.10
2018,10,21,12,22,14.10
2018,10,21,12,23,14.10
2018,10,21,12,24,14.20
2018,10,21,12,25,14.20
2018,10,21,12,26,14.20
2018,10,21,12,27,14.20
2018,10,21,12,28,14.20
2018,10,21,12,29,14.20
2018,10,21,12,30,14.20
2018,10,21,12,31,14.20
2018,10,21,12,32,14.20
2018,10,21,12,33,14.20
2018,10,21,12,34,14.30
2018,10,21,12,35,14.30
2018,10,21,12,36,14.30
2018,10,21,12,37,14.30
2018,10,21,12,38,14.30
2018,10,21,12,39,14.30
2018,10,21,12,40,14.30
2018,10,21,12,41,14.30
2018,10,21,12,42,14.30
2018,10,21,12,43,14.40
2018,10,21,12,44,14.40
2018,10,21,12,45,14.40
2018,10,21,12,46,14.40
2018,10,21,12,47,14.50
2018,10,21,12,48,14.50
2018,10,21,12,49,14.60
2018,10,21,12,50,14.60
2018,10,21,12,51,14.60
2018,10,21,12,52,14.70
2018,10,21,12,53,14.70
2018,10,21,12,54,14.80
2018,10,21,12,55,14.80
2018,10,21,12,56,14.80
2018,10,21,12,57,14.80
2018,10,21,12,58,14.80
2018,10,21,12,59,14.80
2018,10,21,13,00,14.80
2018,10,21,13,01,14.90
2018,10,21,13,02,15.00
2018,10,21,13,03,15.00
2018,10,21,13,04,15.10
2018,10,21,13,05,15.10
2018,10,21,13,06,15.10
2018,10,21,13,07,15.10
2018,10,21,13,08,15.10
2018,10,21,13,09,15.20
2018,10,21,13,10,15.20
2018,10,21,13,11,15.30
2018,10,21,13,12,15.30
2018,10,21,13,13,15.30
2018,10,21,13,14,15.30
2018,10,21,13,15,15.30
2018,10,21,13,16,15.30
2018,10,21,13,17,15.40
2018,10,21,13,18,15.40
2018,10,21,13,19,15.40
2018,10,21,13,20,15.40
2018,10,21,13,21,15.40
2018,10,21,13,22,15.40
2018,10,21,13,23,15.40
2018,10,21,13,24,15.40
2018,10,21,13,25,15.40
2018,10,21,13,26,15.50
2018,10,21,13,27,15.60
2018,10,21,13,28,15.60
2018,10,21,13,29,15.60
2018,10,21,13,30,15.60
2018,10,21,13,31,15.60
2018,10,21,13,32,15.70
2018,10,21,13,33,15.70
2018,10,21,13,34,15.80
2018,10,21,13,35,15.80
2018,10,21,13,36,15.90
2018,10,21,13,37,15.90
2018,10,21,13,38,16.00
2018,10,21,13,39,16.00
2018,10,21,13,40,16.00
2018,10,21,13,41,16.10
2018,10,21,13,42,16.10
2018,10,21,13,43,16.10
2018,10,21,13,44,16.10
2018,10,21,13,45,16.10
2018,10,21,13,46,16.10
2018,10,21,13,47,16.10
2018,10,21,13,48,16.10
2018,10,21,13,49,16.10
2018,10,21,13,50,16.00
2018,10,21,13,51,16.00
2018,10,21,13,52,16.00
2018,10,21,13,53,16.00
2018,10,21,13,54,16.00
2018,10,21,13,55,16.00
2018,10,21,13,56,16.00
2018,10,21,13,57,16.00
2018,10,21,13,58,16.00
2018,10,21,13,59,16.10
2018,10,21,14,00,16.10
2018,10,21,14,01,16.10
2018,10,21,14,02,16.10
2018,10,21,14,03,16.20
2018,10,21,14,04,16.20
2018,10,21,14,05,16.20
2018,10,21,14,06,16.20
2018,10,21,14,07,16.20
2018,10,21,14,08,16.20
2018,10,21,14,09,16.20
2018,10,21,14,10,16.30
2018,10,21,14,11,16.30
2018,10,21,14,12,16.30
2018,10,21,14,13,16.20
2018,10,21,14,14,16.10
2018,10,21,14,15,16.00
2018,10,21,14,16,15.80
2018,10,21,14,17,15.80
2018,10,21,14,18,15.60
2018,10,21,14,19,15.50
2018,10,21,14,20,15.40
2018,10,21,14,21,15.30
2018,10,21,14,22,15.20
2018,10,21,14,23,15.10
2018,10,21,14,24,15.00
2018,10,21,14,25,15.00
2018,10,21,14,26,14.90
2018,10,21,14,27,14.90
2018,10,21,14,28,14.90
2018,10,21,14,29,14.90
2018,10,21,14,30,14.90
2018,10,21,14,31,14.90
2018,10,21,14,32,14.90
2018,10,21,14,33,14.90
2018,10,21,14,34,14.90
2018,10,21,14,35,14.90
2018,10,21,14,36,14.90
2018,10,21,14,37,15.00
2018,10,21,14,38,15.00
2018,10,21,14,39,15.00
2018,10,21,14,40,15.10
2018,10,21,14,41,15.10
2018,10,21,14,42,15.10
2018,10,21,14,43,15.20
2018,10,21,14,44,15.20
2018,10,21,14,45,15.30
2018,10,21,14,46,15.40
2018,10,21,14,47,15.40
2018,10,21,14,48,15.50
2018,10,21,14,49,15.60
2018,10,21,14,50,15.60
2018,10,21,14,51,15.70
2018,10,21,14,52,15.70
2018,10,21,14,53,15.70
2018,10,21,14,54,15.70
2018,10,21,14,55,15.70
2018,10,21,14,56,15.70
2018,10,21,14,57,15.80
2018,10,21,14,58,15.90
2018,10,21,14,59,15.90
2018,10,21,15,00,15.90
2018,10,21,15,01,16.00
2018,10,21,15,02,16.00
2018,10,21,15,03,16.10
2018,10,21,15,04,16.10
2018,10,21,15,05,16.20
2018,10,21,15,06,16.20
2018,10,21,15,07,16.30
2018,10,21,15,08,16.30
2018,10,21,15,09,16.30
2018,10,21,15,10,16.30
2018,10,21,15,11,16.30
2018,10,21,15,12,16.30
2018,10,21,15,13,16.30
2018,10,21,15,14,16.30
2018,10,21,15,15,16.30
2018,10,21,15,16,16.40
2018,10,21,15,17,16.40
2018,10,21,15,18,16.50
2018,10,21,15,19,16.50
2018,10,21,15,20,16.60
2018,10,21,15,21,16.70
2018,10,21,15,22,16.70
2018,10,21,15,23,16.70
2018,10,21,15,24,16.70
2018,10,21,15,25,16.70
2018,10,21,15,26,16.50
2018,10,21,15,27,16.30
2018,10,21,15,28,16.10
2018,10,21,15,29,15.90
2018,10,21,15,30,15.70
2018,10,21,15,31,15.60
2018,10,21,15,32,15.60
2018,10,21,15,33,15.50
2018,10,21,15,34,15.40
2018,10,21,15,35,15.40
2018,10,21,15,36,15.30
2018,10,21,15,37,15.10
2018,10,21,15,38,15.00
2018,10,21,15,39,15.00
2018,10,21,15,40,14.90
2018,10,21,15,41,14.80
2018,10,21,15,42,14.80
2018,10,21,15,43,14.80
2018,10,21,15,44,14.70
2018,10,21,15,45,14.70
2018,10,21,15,46,14.60
2018,10,21,15,47,14.60
2018,10,21,15,48,14.50
2018,10,21,15,49,14.50
2018,10,21,15,50,14.50
2018,10,21,15,51,14.50
2018,10,21,15,52,14.50
2018,10,21,15,53,14.50
2018,10,21,15,54,14.50
2018,10,21,15,55,14.50
2018,10,21,15,56,14.40
2018,10,21,15,57,14.40
2018,10,21,15,58,14.30
2018,10,21,15,59,14.30
2018,10,21,16,00,14.30
2018,10,21,16,01,14.20
2018,10,21,16,02,14.10
2018,10,21,16,03,14.00
2018,10,21,16,04,13.90
2018,10,21,16,05,13.90
2018,10,21,16,06,13.90
2018,10,21,16,07,13.90
2018,10,21,16,08,13.90
2018,10,21,16,09,13.90
2018,10,21,16,10,13.90
2018,10,21,16,11,13.90
2018,10,21,16,12,13.90
2018,10,21,16,13,13.90
2018,10,21,16,14,13.90
2018,10,21,16,15,13.90
2018,10,21,16,16,13.80
2018,10,21,16,17,13.80
2018,10,21,16,18,13.70
2018,10,21,16,19,13.70
2018,10,21,16,20,13.70
2018,10,21,16,21,13.70
2018,10,21,16,22,13.70
2018,10,21,16,23,13.60
2018,10,21,16,24,13.60
2018,10,21,16,25,13.50
2018,10,21,16,26,13.50
2018,10,21,16,27,13.50
2018,10,21,16,28,13.40
2018,10,21,16,29,13.40
2018,10,21,16,30,13.40
2018,10,21,16,31,13.40
2018,10,21,16,32,13.40
2018,10,21,16,33,13.40
2018,10,21,16,34,13.50
2018,10,21,16,35,13.50
2018,10,21,16,36,13.60
2018,10,21,16,37,13.60
2018,10,21,16,38,13.60
2018,10,21,16,39,13.60
2018,10,21,16,40,13.60
2018,10,21,16,41,13.60
2018,10,21,16,42,13.50
2018,10,21,16,43,13.60
2018,10,21,16,44,13.60
2018,10,21,16,45,13.60
2018,10,21,16,46,13.60
2018,10,21,16,47,13.60
2018,10,21,16,48,13.60
2018,10,21,16,49,13.60
2018,10,21,16,50,13.60
2018,10,21,16,51,13.60
2018,10,21,16,52,13.60
2018,10,21,16,53,13.60
2018,10,21,16,54,13.60
2018,10,21,16,55,13.70
2018,10,21,16,56,13.70
2018,10,21,16,57,13.70
2018,10,21,16,58,13.70
2018,10,21,16,59,13.80
2018,10,21,17,00,13.80
2018,10,21,17,01,13.80
2018,10,21,17,02,13.80
2018,10,21,17,03,13.80
2018,10,21,17,04,13.80
2018,10,21,17,05,13.80
2018,10,21,17,06,13.80
2018,10,21,17,07,13.80
2018,10,21,17,08,13.70
2018,10,21,17,09,13.70
2018,10,21,17,10,13.70
2018,10,21,17,11,13.70
2018,10,21,17,12,13.70
2018,10,21,17,13,13.70
2018,10,21,17,14,13.70
2018,10,21,17,15,13.70
2018,10,21,17,16,13.70
2018,10,21,17,17,13.70
2018,10,21,17,18,13.70
2018,10,21,17,19,13.60
2018,10,21,17,20,13.60
2018,10,21,17,21,13.60
2018,10,21,17,22,13.50
2018,10,21,17,23,13.50
2018,10,21,17,24,13.50
2018,10,21,17,25,13.40
2018,10,21,17,26,13.40
2018,10,21,17,27,13.40
2018,10,21,17,28,13.30
2018,10,21,17,29,13.30
2018,10,21,17,30,13.30
2018,10,21,17,31,13.20
2018,10,21,17,32,13.20
2018,10,21,17,33,13.20
2018,10,21,17,34,13.10
2018,10,21,17,35,13.10
2018,10,21,17,36,13.00
2018,10,21,17,37,13.00
2018,10,21,17,38,13.00
2018,10,21,17,39,12.90
2018,10,21,17,40,12.90